Flag for U.S.A. Weather past 2 weeks in Orlando, Florida, U.S.A.

Now
85 °F

Broken clouds.


Feels Like: 94 °F
Forecast: 76 / 90 °F
Wind: 3 mph from Northwest

Location: Orlando Executive Airport

Current Time: Jul 24, 2014 at 11:47:35 AM

Latest Report: Jul 24, 2014 at 10:53 AM


Visibility: 10 mi

Pressure: 30.07 "Hg

Humidity: 75%

Dew point: 76 °F

Location of OrlandoLocation

Historic Weather in Orlando — Graph

°F

Orlando temperature yesterday

Maximum temperature yesterday: 92 °F (at 3:53 PM)
Minimum temperature yesterday: 75 °F (at 5:53 AM)
Average temperature yesterday: 84 °F

Past Weeks' High & Low Weather Summary

 TemperatureHumidityPressure
High93 °F (Jul 18, 2:53 PM)100% (Jul 11, 5:53 AM)30.18 "Hg (Jul 11, 5:53 AM)
Low73 °F (Jul 11, 5:53 AM)37% (Jul 18, 4:53 PM)29.91 "Hg (Jul 16, 5:53 PM)
Average81 °F80%30.06 "Hg
* Reported Jul 10 10:53 AM — Jul 24 9:53 AM, Orlando, Weather by CustomWeather, © 2014

Note: Actual official high and low records may vary slightly from our data, if they occured in-between our weather recording intervals... More about our weather records

Advertising

Orlando weather history for previous 24 hours

 ConditionsComfort  
Time TempWeatherWind HumidityBarometerVisibility
9:53 AM
Jul 24
84 °FPartly sunny.No wind83%30.07 "Hg10 mi
8:53 AM81 °FPartly sunny.5 mph88%30.07 "Hg10 mi
7:53 AM79 °FSunny.3 mph94%30.06 "Hg9 mi
6:53 AM78 °FClear.3 mph93%30.04 "Hg8 mi
5:53 AM79 °FClear.No wind90%30.03 "Hg10 mi
4:53 AM79 °FClear.No wind90%30.02 "Hg10 mi
3:53 AM79 °FClear.No wind94%30.01 "Hg10 mi
2:53 AM79 °FClear.5 mph94%30.02 "Hg10 mi
1:53 AM80 °FClear.5 mph94%30.03 "Hg10 mi
12:53 AM80 °FClear.5 mph94%30.04 "Hg10 mi
11:53 PM
Jul 23
81 °FPassing clouds.5 mph91%30.05 "Hg10 mi
10:53 PM81 °FPassing clouds.3 mph91%30.04 "Hg10 mi
9:53 PM81 °FPassing clouds.9 mph88%30.04 "Hg10 mi
8:53 PM81 °FScattered clouds.13 mph88%30.02 "Hg10 mi
7:53 PM87 °FPartly sunny.6 mph72%30.02 "Hg10 mi
6:53 PM88 °FMostly cloudy.7 mph63%30.01 "Hg10 mi
5:53 PM89 °FPartly sunny.9 mph61%30.01 "Hg10 mi
4:53 PM92 °FOvercast.6 mph52%30.03 "Hg10 mi
3:53 PM92 °FSunny.5 mph51%30.04 "Hg10 mi
2:53 PM90 °FScattered clouds.5 mph57%30.06 "Hg10 mi
1:53 PM89 °FPartly sunny.9 mph59%30.08 "Hg10 mi
12:53 PM90 °FPartly sunny.8 mph59%30.09 "Hg10 mi
11:53 AM87 °FSunny.3 mph67%30.09 "Hg10 mi
Weather by CustomWeather, © 2014

See weather overviewHow to use our weather pages